Cloud_Cover
100 100 100 100 100 100 100 100 100 100 99 100 100 100 100 98 77 98 98 100 5 35 94 75 78 40 5 0 0 0 0 0 0 0 0 0 0 0 0 0 0 0 0 0 0 0 0 0 10
100 100 100 100 100 100 100 100 100 100 100 100 100 100 100 82 91 99 76 50 97 89 82 5 6 4 0 0 0 0 0 0 0 0 0 0 0 0 0 0 0 0 0 0 0 0 0 0 0
100 100 100 100 100 100 100 100 100 100 100 100 100 100 100 40 8 55 99 100 100 87 3 4 2 0 0 0 0 0 0 0 0 0 0 0 0 0 0 0 0 0 0 0 0 0 0 0 0
100 81 100 100 53 81 100 100 100 100 100 100 100 100 100 100 100 100 100 88 90 1 0 1 0 0 0 0 0 0 0 0 0 0 0 0 0 0 0 0 0 0 0 0 0 0 0 0 0
100 76 58 98 74 75 100 100 100 100 100 100 98 71 94 100 88 72 55 4 0 0 0 0 0 0 0 0 0 0 0 0 0 0 0 0 0 0 0 0 0 0 0 0 0 0 0 0 0
94 100 96 97 100 100 100 100 100 100 90 100 36 90 100 100 81 4 0 0 0 0 0 0 1 0 0 0 0 0 0 0 0 0 0 0 0 0 0 0 0 0 0 0 0 0 0 0 0
100 100 100 100 100 94 95 100 100 98 100 95 95 94 87 57 74 5 0 0 0 0 0 0 0 0 0 0 0 0 0 0 0 0 0 0 0 0 0 0 0 0 0 0 0 0 0 0 0
100 100 100 83 100 98 78 100 60 7 14 99 100 100 100 100 18 5 0 0 0 0 0 0 0 0 0 0 4 0 0 1 0 0 0 0 0 0 0 0 0 0 0 0 0 0 0 0 0
100 95 100 63 5 15 49 77 99 100 100 100 73 82 40 70 48 0 3 0 0 0 0 0 0 0 0 0 4 0 0 0 0 0 0 0 0 0 0 0 0 0 0 0 0 0 1 5 2
61 95 100 100 80 33 81 26 5 31 100 56 45 26 46 13 1 0 0 0 0 0 0 0 0 5 5 2 2 0 0 0 0 0 0 0 0 0 0 0 0 0 0 0 0 0 0 0 2
94 39 20 14 94 100 79 100 100 100 99 100 41 80 7 0 0 0 0 0 0 0 0 0 0 2 0 0 0 0 0 0 0 0 0 0 0 0 0 4 0 5 5 5 5 2 0 3 0
100 100 100 100 100 90 100 100 100 83 13 0 0 0 0 0 0 0 0 0 0 0 2 0 0 0 0 0 0 0 0 0 1 0 0 0 3 5 5 5 5 5 6 5 5 4 0 0 1
100 44 74 85 44 22 100 88 0 0 0 0 0 0 0 0 0 0 0 0 0 0 0 0 0 0 0 0 0 1 5 5 5 4 0 0 5 48 15 5 5 8 13 29 16 5 5 5 4
97 0 0 0 0 0 1 0 0 0 0 0 0 0 0 0 0 0 0 0 0 0 0 0 0 0 0 0 3 5 3 5 5 4 5 6 26 39 5 10 9 20 53 10 18 48 5 4 4
0 0 0 0 0 0 0 0 0 0 0 0 0 0 0 0 0 0 0 0 0 0 0 0 0 0 0 0 0 5 5 7 5 5 5 30 32 5 6 5 6 51 73 5 5 5 5 5 5
0 0 0 0 0 0 0 0 0 0 0 0 0 0 0 1 0 0 0 0 0 0 0 0 0 0 0 4 5 30 51 5 24 24 78 26 38 8 5 56 98 50 6 12 5 3 0 2 0
0 0 0 0 0 0 0 3 0 0 2 5 0 0 0 0 0 0 0 0 0 0 0 0 1 5 5 12 48 11 42 5 5 5 33 8 49 5 5 35 59 37 17 5 5 0 1 5 5
18 0 0 2 28 1 3 5 5 5 5 5 5 0 0 0 4 0 0 0 0 0 0 0 5 5 67 66 43 40 33 5 4 5 14 5 5 5 5 5 6 5 5 5 0 0 0 4 0
59 5 94 5 2 4 38 42 0 0 1 44 26 5 4 5 1 0 0 0 0 0 4 4 5 5 5 5 5 6 5 5 42 5 5 5 1 5 5 5 5 5 5 1 0 0 0 5 2
47 99 32 0 2 4 0 90 22 8 100 100 100 100 52 5 5 5 3 4 0 5 5 5 5 5 5 5 5 5 30 54 5 5 1 4 40 32 35 4 4 0 0 0 0 0 0 0 0
20 76 7 0 9 5 4 86 98 88 95 100 100 100 48 30 1 4 3 5 5 5 5 11 6 5 37 6 25 5 4 5 5 5 5 22 6 3 0 0 0 0 0 0 0 0 0 0 0
56 13 44 5 5 5 5 93 100 100 90 6 5 5 4 0 0 5 0 5 5 17 10 12 54 48 37 26 5 5 5 5 5 5 84 19 0 0 0 0 0 0 0 0 0 0 0 0 5
0 5 6 6 3 0 55 13 100 100 14 23 5 4 5 2 1 4 7 5 47 24 6 68 100 83 17 5 5 5 5 5 5 4 0 0 0 0 0 0 0 0 0 0 0 0 0 0 0
1 5 10 5 4 4 100 12 100 100 100 71 40 6 2 85 11 5 6 16 57 66 28 47 13 5 5 0 0 0 3 2 2 0 0 0 0 0 0 0 0 0 0 0 0 0 0 4 5
4 4 5 3 0 62 100 8 100 100 100 94 100 100 31 8 34 8 12 5 5 5 5 5 5 5 5 4 0 2 0 0 0 0 0 0 0 0 0 0 0 0 0 0 0 0 0 0 5
100 10 4 0 2 5 60 26 100 100 100 59 100 49 37 97 7 5 5 3 5 5 5 5 5 5 5 2 2 1 0 4 5 0 0 0 0 0 0 0 0 0 0 0 0 0 0 5 5
100 29 89 2 0 0 2 17 100 100 100 100 98 7 5 5 5 5 5 5 6 5 5 5 5 5 5 5 5 5 5 5 5 3 2 0 0 4 5 2 0 0 0 0 0 0 2 5 5
1 31 81 3 0 0 1 47 100 100 100 100 97 10 5 1 5 4 4 16 100 57 5 70 45 22 5 5 5 5 5 5 19 5 5 5 4 5 5 5 2 0 0 0 0 0 5 5 5
98 5 27 56 6 1 0 0 87 100 100 100 100 31 5 0 6 63 13 7 47 61 52 99 97 63 36 5 6 5 5 5 5 29 17 5 4 4 4 4 0 0 0 0 0 5 5 5 5
100 5 0 3 2 1 0 2 5 12 100 100 100 74 8 52 38 42 12 45 99 100 100 100 100 81 57 50 7 11 5 5 13 35 6 5 5 2 4 0 0 5 0 0 5 5 5 5 5